Simultaneous Nadir Overpasses (SNOs) Predictions

Prediction of SNOs between NOAA-21 and NOAA-19 Satellite Orbit:

Table of predicted SNOs for the next 14.0 days since TLE Epoch: 5/25/2024
Index Date (NOAA-21) Time (NOAA-21) Lat,Lon (NOAA-21) SZA (NOAA-21 ) Date (NOAA-19) Time (NOAA-19) Lat,Lon (NOAA-19) SZA (NOAA-19 ) Distance(km) Time Diff (sec)
1 06/01/2024 15:19:03 -72.79, 121.73 129.29 06/01/2024 15:17:53 -72.77, 119.91 129.19 59.92 70
2 06/01/2024 16:09:54 73.03, -71.48 50.97 06/01/2024 16:08:41 73.04, -72.20 51.05 23.47 73
3 06/01/2024 17:00:42 -73.24, 95.38 128.80 06/01/2024 16:59:42 -73.21, 95.42 128.82 3.25 60
4 06/01/2024 17:51:28 73.23, -97.29 51.19 06/01/2024 17:50:35 73.24, -97.24 51.21 2.13 53
5 06/01/2024 18:42:12 -73.24, 70.01 128.81 06/01/2024 18:41:39 -73.26, 70.04 128.79 2.74 33
6 06/01/2024 19:32:58 73.23,-122.67 51.18 06/01/2024 19:32:33 73.24,-122.73 51.20 2.39 25
7 06/01/2024 20:23:43 -73.29, 44.52 128.77 06/01/2024 20:23:37 -73.26, 44.55 128.80 3.14 6
8 06/01/2024 21:14:29 73.28,-148.15 51.22 06/01/2024 21:14:30 73.29,-148.10 51.23 1.98 1
9 06/01/2024 22:05:13 -73.29, 19.15 128.78 06/01/2024 22:05:34 -73.31, 19.17 128.76 2.60 21
10 06/01/2024 22:55:59 73.28,-173.52 51.21 06/01/2024 22:56:28 73.29,-173.59 51.22 2.62 29
11 06/01/2024 23:46:44 -73.33, -6.34 128.73 06/01/2024 23:47:32 -73.31, -6.32 128.77 3.09 48
12 06/02/2024 00:37:30 73.33, 160.99 51.26 06/02/2024 00:38:25 73.34, 161.03 51.26 1.86 55
13 06/02/2024 01:28:15 -73.38, -31.82 128.69 06/02/2024 01:29:29 -73.36, -31.69 128.74 5.11 74
14 06/02/2024 02:19:07 73.67, 134.82 51.63 06/02/2024 02:20:17 73.63, 136.25 51.50 45.10 70



Historial Predications of SNOs between NOAA-21 and NOAA-19
